WZZ6306 LHBP-LIMJ

Flight info

Callsign WZZ6306
Flight time 1h 15m
Altitude 36000
Route DUZLA DCT OKORA DCT VEBAL DCT KOTOR DCT LABIN DCT NIMUM DCT BOA DCT TODNO DCT LURUT DCT LUPOS DCT EKPAL M859 GOLAS
Aircraft A321/M-SDE1E2E3FGIJ1J4RWXY/LB1

Departure

Time 2026-04-14 09:43
Airport Budapest Liszt Ferenc International Airport (LHBP)

Arrival

Time 2026-04-14 10:58
Airport Genoa Cristoforo Colombo Airport (LIMJ)
Time Latitude Longitude Altitude Speed Heading
2026-04-14 09:42 47.41300 19.03021 8073 ft 270 kts 200°
2026-04-14 09:43 47.39573 19.01897 8873 ft 274 kts 201°
2026-04-14 09:43 47.37822 19.00724 9680 ft 278 kts 201°
2026-04-14 09:43 47.36048 18.99529 10314 ft 288 kts 201°
2026-04-14 09:43 47.34147 18.98259 10553 ft 311 kts 201°
2026-04-14 09:44 47.32114 18.96908 10931 ft 326 kts 201°
2026-04-14 09:44 47.30024 18.95524 11605 ft 331 kts 202°
2026-04-14 09:44 47.27910 18.94125 12329 ft 335 kts 202°
2026-04-14 09:44 47.25777 18.92712 13099 ft 337 kts 202°
2026-04-14 09:45 47.23634 18.91296 13845 ft 339 kts 202°
2026-04-14 09:45 47.21473 18.89870 14500 ft 342 kts 203°
2026-04-14 09:45 47.19288 18.88432 15138 ft 346 kts 203°
2026-04-14 09:45 47.17076 18.86981 15781 ft 349 kts 203°
2026-04-14 09:46 47.14839 18.85518 16411 ft 354 kts 203°
2026-04-14 09:46 47.12577 18.84042 17107 ft 357 kts 203°
2026-04-14 09:46 47.10294 18.82551 17782 ft 360 kts 203°
2026-04-14 09:46 47.07994 18.81048 18419 ft 364 kts 204°
2026-04-14 09:47 47.05658 18.79522 18922 ft 370 kts 204°
2026-04-14 09:47 47.03289 18.77979 19440 ft 375 kts 204°
2026-04-14 09:47 47.00902 18.76424 20047 ft 377 kts 204°
2026-04-14 09:47 46.98492 18.74856 20650 ft 379 kts 204°
2026-04-14 09:48 46.96158 18.73036 21223 ft 383 kts 214°
2026-04-14 09:48 46.94719 18.71442 21605 ft 384 kts 221°
2026-04-14 09:48 46.92836 18.68699 22107 ft 389 kts 227°
2026-04-14 09:48 46.90969 18.65825 22694 ft 391 kts 226°
2026-04-14 09:49 46.89083 18.62946 23337 ft 392 kts 226°
2026-04-14 09:49 46.87154 18.60017 23821 ft 396 kts 226°
2026-04-14 09:49 46.85252 18.57135 24206 ft 400 kts 226°
2026-04-14 09:49 46.83315 18.54206 24708 ft 401 kts 226°
2026-04-14 09:50 46.81370 18.51271 25175 ft 404 kts 226°
2026-04-14 09:50 46.79384 18.48268 25560 ft 408 kts 226°
2026-04-14 09:50 46.77411 18.45287 25989 ft 410 kts 226°
2026-04-14 09:50 46.75424 18.42287 26464 ft 411 kts 226°
2026-04-14 09:51 46.73427 18.39277 26868 ft 414 kts 226°
2026-04-14 09:51 46.71411 18.36245 27256 ft 418 kts 226°
2026-04-14 09:51 46.69382 18.33199 27685 ft 420 kts 226°
2026-04-14 09:51 46.67347 18.30141 28167 ft 421 kts 226°
2026-04-14 09:52 46.65328 18.27103 28521 ft 425 kts 226°
2026-04-14 09:52 46.63234 18.23957 28896 ft 428 kts 226°
2026-04-14 09:52 46.61159 18.20850 29326 ft 429 kts 226°
2026-04-14 09:52 46.59103 18.17775 29686 ft 432 kts 226°
2026-04-14 09:53 46.56995 18.14629 29988 ft 436 kts 226°
2026-04-14 09:53 46.54870 18.11469 30361 ft 438 kts 226°
2026-04-14 09:53 46.52741 18.08302 30731 ft 440 kts 226°
2026-04-14 09:53 46.50597 18.05115 31010 ft 443 kts 225°
2026-04-14 09:54 46.48420 18.01878 31417 ft 442 kts 225°
2026-04-14 09:54 46.46278 17.98694 31944 ft 440 kts 225°
2026-04-14 09:54 46.44141 17.95525 32362 ft 440 kts 225°
2026-04-14 09:54 46.42000 17.92352 32754 ft 440 kts 225°
2026-04-14 09:55 46.39891 17.89229 33195 ft 439 kts 225°
2026-04-14 09:55 46.37732 17.86031 33631 ft 438 kts 225°
2026-04-14 09:55 46.35606 17.82891 34053 ft 437 kts 225°
2026-04-14 09:55 46.33479 17.79755 34420 ft 436 kts 225°
2026-04-14 09:56 46.31382 17.76672 34764 ft 435 kts 225°
2026-04-14 09:56 46.29260 17.73554 35111 ft 434 kts 225°
2026-04-14 09:56 46.27142 17.70444 35447 ft 434 kts 225°
2026-04-14 09:56 46.25025 17.67337 35772 ft 433 kts 225°
2026-04-14 09:57 46.22910 17.64237 35993 ft 433 kts 225°
2026-04-14 09:57 46.18698 17.58085 36038 ft 429 kts 225°
2026-04-14 09:58 46.14506 17.51972 36034 ft 428 kts 225°
2026-04-14 09:58 46.10312 17.45873 36035 ft 428 kts 225°
2026-04-14 09:59 46.06123 17.39786 36034 ft 428 kts 225°
2026-04-14 09:59 46.01923 17.33701 36032 ft 428 kts 224°
2026-04-14 10:00 45.98331 17.26889 36034 ft 430 kts 242°
2026-04-14 10:00 45.95875 17.19037 36040 ft 431 kts 245°
2026-04-14 10:01 45.93428 17.11180 36044 ft 431 kts 244°
2026-04-14 10:01 45.90963 17.03308 36047 ft 432 kts 245°
2026-04-14 10:02 45.88505 16.95444 36043 ft 432 kts 245°
2026-04-14 10:02 45.86047 16.87587 36048 ft 432 kts 245°
2026-04-14 10:03 45.83583 16.79736 36050 ft 431 kts 244°
2026-04-14 10:03 45.81112 16.71895 36066 ft 431 kts 244°
2026-04-14 10:04 45.78633 16.64063 36060 ft 432 kts 244°
2026-04-14 10:04 45.76146 16.56236 36066 ft 432 kts 244°
2026-04-14 10:05 45.73666 16.48424 36059 ft 431 kts 244°
2026-04-14 10:05 45.71180 16.40611 36056 ft 431 kts 244°
2026-04-14 10:06 45.68700 16.32873 36055 ft 431 kts 244°
2026-04-14 10:06 45.66199 16.25093 36056 ft 431 kts 244°
2026-04-14 10:07 45.63700 16.17320 36057 ft 431 kts 244°
2026-04-14 10:07 45.61193 16.09551 36060 ft 430 kts 244°
2026-04-14 10:08 45.58680 16.01795 36063 ft 430 kts 243°
2026-04-14 10:08 45.56164 15.94041 36066 ft 430 kts 244°
2026-04-14 10:09 45.53650 15.86306 36058 ft 430 kts 243°
2026-04-14 10:09 45.51126 15.78568 36058 ft 430 kts 243°
2026-04-14 10:10 45.48598 15.70855 36075 ft 430 kts 243°
2026-04-14 10:10 45.46057 15.63145 36071 ft 430 kts 243°
2026-04-14 10:11 45.43769 15.55284 36069 ft 432 kts 253°
2026-04-14 10:11 45.42356 15.46981 36068 ft 432 kts 254°
2026-04-14 10:12 45.40916 15.38676 36065 ft 432 kts 254°
2026-04-14 10:12 45.39470 15.30374 36066 ft 432 kts 254°
2026-04-14 10:13 45.38024 15.22075 36064 ft 432 kts 254°
2026-04-14 10:13 45.36583 15.13784 36065 ft 432 kts 254°
2026-04-14 10:14 45.35125 15.05487 36058 ft 432 kts 254°
2026-04-14 10:14 45.33656 14.97202 36035 ft 433 kts 253°
2026-04-14 10:15 45.32175 14.88907 36018 ft 433 kts 253°
2026-04-14 10:15 45.30699 14.80620 36007 ft 433 kts 253°
2026-04-14 10:16 45.29220 14.72334 35995 ft 433 kts 253°
2026-04-14 10:16 45.27723 14.64048 35989 ft 433 kts 253°
2026-04-14 10:17 45.26225 14.55765 35987 ft 433 kts 253°
2026-04-14 10:17 45.24717 14.47490 35987 ft 433 kts 253°
2026-04-14 10:18 45.22449 14.35088 36002 ft 433 kts 253°
2026-04-14 10:18 45.20939 14.26819 36000 ft 433 kts 253°
2026-04-14 10:19 45.19425 14.18556 35995 ft 433 kts 253°
2026-04-14 10:19 45.17896 14.10307 35992 ft 433 kts 253°
2026-04-14 10:20 45.16366 14.02114 35990 ft 433 kts 253°
2026-04-14 10:20 45.14820 13.93871 35987 ft 433 kts 253°
2026-04-14 10:21 45.13258 13.85586 35984 ft 433 kts 253°
2026-04-14 10:21 45.11708 13.77342 35971 ft 433 kts 253°
2026-04-14 10:22 45.10158 13.69160 35974 ft 433 kts 253°
2026-04-14 10:22 45.08590 13.60935 35974 ft 433 kts 252°
2026-04-14 10:23 45.07008 13.52665 35989 ft 433 kts 253°
2026-04-14 10:23 45.05431 13.44451 35978 ft 433 kts 253°
2026-04-14 10:24 45.03848 13.36229 35978 ft 433 kts 252°
2026-04-14 10:24 45.02254 13.28018 35976 ft 433 kts 252°
2026-04-14 10:25 45.01469 13.23960 35833 ft 433 kts 252°
2026-04-14 10:25 45.00668 13.19817 35573 ft 430 kts 252°
2026-04-14 10:25 44.99880 13.15767 35321 ft 427 kts 252°
2026-04-14 10:25 44.99102 13.11791 35083 ft 425 kts 252°
2026-04-14 10:26 44.98317 13.07768 34936 ft 424 kts 253°
2026-04-14 10:26 44.97591 13.03729 34966 ft 425 kts 254°
2026-04-14 10:26 44.96265 12.95581 34962 ft 426 kts 255°
2026-04-14 10:27 44.94957 12.87423 34955 ft 426 kts 255°
2026-04-14 10:27 44.93608 12.79280 34953 ft 426 kts 254°
2026-04-14 10:28 44.92225 12.71147 34954 ft 426 kts 254°
2026-04-14 10:28 44.90840 12.63050 34957 ft 426 kts 254°
2026-04-14 10:29 44.89441 12.54920 34953 ft 427 kts 254°
2026-04-14 10:29 44.88045 12.46769 34961 ft 427 kts 254°
2026-04-14 10:30 44.86643 12.38630 34958 ft 427 kts 254°
2026-04-14 10:30 44.85235 12.30502 34957 ft 427 kts 254°
2026-04-14 10:31 44.83817 12.22390 34966 ft 427 kts 254°
2026-04-14 10:31 44.82399 12.14262 34943 ft 427 kts 254°
2026-04-14 10:32 44.80980 12.06121 34947 ft 428 kts 254°
2026-04-14 10:32 44.79788 11.99354 34948 ft 429 kts 254°
2026-04-14 10:33 44.78341 11.91202 34958 ft 429 kts 252°
2026-04-14 10:33 44.75921 11.83610 34958 ft 425 kts 238°
2026-04-14 10:34 44.71521 11.72768 34963 ft 426 kts 239°
2026-04-14 10:35 44.68591 11.65512 34965 ft 427 kts 239°
2026-04-14 10:35 44.65650 11.58266 34971 ft 428 kts 239°
2026-04-14 10:36 44.62691 11.50996 34982 ft 428 kts 238°
2026-04-14 10:36 44.59722 11.43738 34990 ft 429 kts 238°
2026-04-14 10:37 44.56747 11.36490 34991 ft 429 kts 238°
2026-04-14 10:37 44.54168 11.28950 34955 ft 434 kts 252°
2026-04-14 10:37 44.53530 11.24810 34774 ft 434 kts 261°
2026-04-14 10:38 44.53322 11.20590 34289 ft 433 kts 265°
2026-04-14 10:38 44.53159 11.16397 33880 ft 429 kts 264°
2026-04-14 10:38 44.52992 11.12239 33414 ft 426 kts 264°
2026-04-14 10:38 44.52822 11.08117 32938 ft 423 kts 264°
2026-04-14 10:39 44.52645 11.04016 32466 ft 420 kts 264°
2026-04-14 10:39 44.52458 10.99955 31973 ft 417 kts 264°
2026-04-14 10:39 44.52263 10.95915 31473 ft 414 kts 264°
2026-04-14 10:39 44.52073 10.91904 30983 ft 411 kts 264°
2026-04-14 10:40 44.51888 10.87928 30508 ft 409 kts 265°
2026-04-14 10:40 44.51705 10.83965 30036 ft 406 kts 265°
2026-04-14 10:40 44.51523 10.80030 29502 ft 403 kts 265°
2026-04-14 10:40 44.51341 10.76121 28987 ft 401 kts 265°
2026-04-14 10:41 44.51159 10.72240 28495 ft 398 kts 265°
2026-04-14 10:41 44.50976 10.68385 28016 ft 395 kts 265°
2026-04-14 10:41 44.50791 10.64556 27554 ft 393 kts 265°
2026-04-14 10:41 44.50605 10.60757 27128 ft 390 kts 265°
2026-04-14 10:42 44.50418 10.56972 26701 ft 388 kts 265°
2026-04-14 10:42 44.50234 10.53214 26278 ft 385 kts 265°
2026-04-14 10:42 44.50056 10.49479 25866 ft 383 kts 264°
2026-04-14 10:42 44.49879 10.45766 25445 ft 381 kts 264°
2026-04-14 10:43 44.49704 10.42075 25016 ft 379 kts 265°
2026-04-14 10:43 44.49528 10.38404 24595 ft 377 kts 265°
2026-04-14 10:43 44.49353 10.34762 24179 ft 375 kts 265°
2026-04-14 10:43 44.49176 10.31122 23764 ft 373 kts 265°
2026-04-14 10:44 44.48998 10.27514 23294 ft 371 kts 264°
2026-04-14 10:44 44.48815 10.23919 22798 ft 369 kts 265°
2026-04-14 10:44 44.48630 10.20349 22314 ft 367 kts 264°
2026-04-14 10:44 44.48449 10.16798 21836 ft 365 kts 265°
2026-04-14 10:45 44.48268 10.13262 21361 ft 363 kts 265°
2026-04-14 10:45 44.48090 10.09747 20871 ft 361 kts 265°
2026-04-14 10:45 44.47917 10.06243 20389 ft 360 kts 265°
2026-04-14 10:45 44.47745 10.02765 19941 ft 359 kts 265°
2026-04-14 10:46 44.47572 9.99288 19486 ft 357 kts 265°
2026-04-14 10:46 44.47400 9.95844 19069 ft 353 kts 265°
2026-04-14 10:46 44.47226 9.92422 18374 ft 352 kts 265°
2026-04-14 10:46 44.47050 9.89015 17612 ft 351 kts 265°
2026-04-14 10:47 44.46875 9.85616 16875 ft 349 kts 265°
2026-04-14 10:47 44.46697 9.82254 16175 ft 345 kts 265°
2026-04-14 10:47 44.46510 9.78913 15477 ft 343 kts 265°
2026-04-14 10:47 44.46317 9.75606 14847 ft 340 kts 265°
2026-04-14 10:48 44.46122 9.72287 14314 ft 342 kts 265°
2026-04-14 10:48 44.45925 9.68966 13818 ft 344 kts 265°
2026-04-14 10:48 44.45727 9.65637 13399 ft 341 kts 265°
2026-04-14 10:48 44.45534 9.62343 12975 ft 339 kts 265°
2026-04-14 10:49 44.45343 9.59092 12675 ft 332 kts 265°
2026-04-14 10:49 44.45160 9.55871 12198 ft 332 kts 266°
2026-04-14 10:49 44.44978 9.52653 11812 ft 330 kts 265°
2026-04-14 10:49 44.44446 9.49553 11349 ft 328 kts 243°
2026-04-14 10:50 44.43114 9.47028 10982 ft 321 kts 219°
2026-04-14 10:50 44.41217 9.45476 10598 ft 314 kts 195°
2026-04-14 10:50 44.39115 9.45039 10441 ft 301 kts 180°
2026-04-14 10:50 44.37043 9.44801 10120 ft 298 kts 183°
2026-04-14 10:51 44.34993 9.44419 9803 ft 296 kts 186°
2026-04-14 10:51 44.32983 9.43788 9394 ft 298 kts 201°
2026-04-14 10:51 44.31288 9.42166 9040 ft 298 kts 227°
2026-04-14 10:51 44.30195 9.39731 8660 ft 297 kts 250°
2026-04-14 10:52 44.29867 9.36946 8427 ft 286 kts 274°
2026-04-14 10:52 44.30246 9.34287 8304 ft 275 kts 289°
2026-04-14 10:52 44.30806 9.31778 8115 ft 269 kts 290°
2026-04-14 10:52 44.31363 9.29275 7710 ft 272 kts 289°
2026-04-14 10:53 44.31923 9.26749 7335 ft 272 kts 289°
2026-04-14 10:53 44.32470 9.24280 7005 ft 260 kts 288°
2026-04-14 10:53 44.32996 9.21901 6595 ft 254 kts 288°
2026-04-14 10:53 44.33518 9.19542 6094 ft 254 kts 289°
2026-04-14 10:54 44.34040 9.17178 5595 ft 256 kts 289°
2026-04-14 10:54 44.34560 9.14812 5085 ft 255 kts 290°
2026-04-14 10:54 44.35078 9.12453 4580 ft 254 kts 290°
2026-04-14 10:54 44.35577 9.10173 4077 ft 251 kts 291°
2026-04-14 10:55 44.36101 9.07792 3532 ft 248 kts 291°
2026-04-14 10:55 44.36599 9.05510 3106 ft 241 kts 292°
2026-04-14 10:55 44.37076 9.03310 2729 ft 232 kts 292°
2026-04-14 10:55 44.37526 9.01206 2457 ft 220 kts 291°
2026-04-14 10:56 44.37912 8.99207 2127 ft 213 kts 290°
2026-04-14 10:56 44.38293 8.97293 1888 ft 193 kts 291°
2026-04-14 10:56 44.38713 8.95615 1635 ft 175 kts 293°
2026-04-14 10:56 44.39138 8.94085 1360 ft 161 kts 291°
2026-04-14 10:57 44.39482 8.92633 1090 ft 156 kts 293°
2026-04-14 10:57 44.39757 8.91251 897 ft 141 kts 288°
2026-04-14 10:57 44.39989 8.89907 670 ft 142 kts 289°
2026-04-14 10:57 44.40294 8.88606 483 ft 142 kts 294°
2026-04-14 10:58 44.40575 8.87259 272 ft 146 kts 291°
2026-04-14 10:58 44.40855 8.85899 88 ft 146 kts 293°
2026-04-14 10:58 44.41119 8.84596 21 ft 124 kts 285°
2026-04-14 10:58 44.41257 8.83872 22 ft 18 kts 285°
2026-04-14 10:59 44.41298 8.83798 20 ft 10 kts 320°
2026-04-14 10:59 44.41363 8.83746 20 ft 12 kts 347°
2026-04-14 10:59 44.41417 8.83809 22 ft 12 kts 85°
2026-04-14 10:59 44.41398 8.83928 22 ft 13 kts 105°
2026-04-14 11:00 44.41392 8.83960 20 ft 2 kts 105°
2026-04-14 11:00 44.41387 8.83986 20 ft 4 kts 105°
2026-04-14 11:00 44.41378 8.84031 20 ft 6 kts 105°
2026-04-14 11:00 44.41365 8.84097 21 ft 8 kts 105°
2026-04-14 11:01 44.41349 8.84183 20 ft 10 kts 105°
2026-04-14 11:01 44.41328 8.84286 20 ft 12 kts 105°
2026-04-14 11:01 44.41305 8.84405 20 ft 14 kts 105°
2026-04-14 11:01 44.41279 8.84539 21 ft 15 kts 105°
2026-04-14 11:02 44.41250 8.84689 20 ft 17 kts 105°
2026-04-14 11:02 44.41219 8.84847 20 ft 16 kts 105°
2026-04-14 11:02 44.41239 8.84915 21 ft 6 kts
2026-04-14 11:02 44.41286 8.84934 20 ft 8 kts 16°
2026-04-14 11:03 44.41340 8.84969 21 ft 9 kts 55°
2026-04-14 11:03 44.41380 8.85025 20 ft 9 kts 14°
2026-04-14 11:03 44.41408 8.85035 20 ft 0 kts 14°
2026-04-14 11:03 44.41415 8.85037 20 ft 2 kts 15°
2026-04-14 11:04 44.41416 8.85038 20 ft 0 kts 15°